User: anonymous   Login
Location: Ward Pound Ridge Reservation
(41.2500°N, 73.6000°W)
Time: 16:59:44
(UTC-05:00)
Language:

N. Korean satellite - Orbit

View from above orbital plane
View from above orbital plane
View from above satellite
View from above satellite

Ground track
Ground track

The orbit data is extracted from the following two-line orbital elements,

1 39026U 12072A   18055.08440761 +.00001487 +00000-0 +58647-4 0  9995
2 39026 097.2146 069.3014 0039776 007.0468 353.1321 15.26387673288342
Epoch (UTC): 24 February 2018 02:01:32
Eccentricity: 0.0039776
inclination: 97.2146°
perigee height: 459 km
apogee height: 514 km
right ascension of ascending node: 69.3014°
argument of perigee: 7.0468°
revolutions per day: 15.26387673
mean anomaly at epoch: 353.1321°
orbit number at epoch: 28834

The dashed part of the orbit path shows where the satellite is in the earth's shadow,  

DLR